Current Weather Conditions: station ENSL

sailwx.info

See reports from other nearby stations

no recent reports received from weather station ID ENSL

Tides Pressure Air temp Water temp Dewpoint Dewpoint depression Visibility Wind speed Wind direction Waves Ship positions
date/time (UTC)wind fromknots sea level pressurealtimeterstation pressurevisibilityair tempwater tempwave heightnotes
2017-Mar-27 01:20 330 5 0.1 6.0 Light rain.
2017-Mar-27 00:50 340 5 0.1 6.0 Light rain.
2017-Mar-27 00:20 320 5 0.4 6.0 Light rain.
2017-Mar-26 23:50 300 6 0.2 6.0 Light rain.
2017-Mar-26 23:20 330 5 0.1 6.0 Light rain.
2017-Mar-26 22:50 0.1 7.0 Light rain.
2017-Mar-26 22:20 0.3 7.0 Light rain.
2017-Mar-26 21:50 0.1 7.0 Light rain.
2017-Mar-26 21:20 350 6 0.1 7.0 Light rain.
2017-Mar-26 20:50 0.2 7.0 Light rain.
2017-Mar-26 20:20 350 6 0.1 7.0 Light rain.
2017-Mar-26 19:50 340 6 0.1 7.0 Light rain.
2017-Mar-26 19:20 350 9 0.1 7.0 Light rain. Fog.
2017-Mar-26 18:50 330 6 0.4 7.0 Light rain.
2017-Mar-26 18:20 340 11 0.9 7.0 Heavy rain.
2017-Mar-26 17:50 320 7 4.9 8.0
2017-Mar-26 17:20 330 11 5.4 8.0
2017-Mar-26 16:50 320 9 4.9 8.0
2017-Mar-26 15:50 320 6 4.9 8.0
2017-Mar-26 15:20 320 8 5.4 8.0 Light drizzle.
2017-Mar-26 14:50 310 11 4.9 8.0
2017-Mar-26 14:20 320 6 1.6 8.0 Light drizzle. Mist.
2017-Mar-26 13:50 330 11 4.9 8.0
2017-Mar-26 13:20 310 7 3.8 8.0
2017-Mar-26 12:41 310 14 4.9 8.0
2017-Mar-26 12:20 310 15 5.4 8.0
2017-Mar-26 11:50 310 14 5.4 8.0
2017-Mar-26 11:20 300 13 5.4 8.0
2017-Mar-26 10:50 320 13 5.4 9.0
2017-Mar-26 10:20 320 11 5.4 8.0
2017-Mar-26 09:50 5.4 9.0
2017-Mar-26 09:20 310 6 5.410.0
2017-Mar-26 08:20 330 11 5.4 9.0
2017-Mar-26 07:50 320 12 5.4 8.0
2017-Mar-26 07:20 320 15 5.4 8.0
2017-Mar-26 06:50 320 14 5.4 8.0
2017-Mar-26 06:20 5.4 8.0
2017-Mar-26 05:50 320 11 5.4 8.0
2017-Mar-26 05:20 320 13 5.4 8.0
2017-Mar-26 04:50 320 9 5.4 8.0
2017-Mar-26 04:20 310 6 5.4 8.0
2017-Mar-26 03:50 330 6 5.4 8.0
2017-Mar-26 03:20 300 11 5.4 8.0
2017-Mar-26 02:50 310 9 5.4 8.0
2017-Mar-26 02:20 290 9 5.4 8.0
2017-Mar-26 01:50 290 6 5.4 8.0
2017-Mar-26 01:20 300 8 5.4 8.0
2017-Mar-26 00:50 300 8 5.4 8.0
2017-Mar-26 00:20 290 9 5.4 8.0
2017-Mar-25 23:50 270 9 5.4 8.0
2017-Mar-25 23:20 270 8 5.4 8.0
2017-Mar-25 22:50 290 7 5.4 8.0
2017-Mar-25 22:20 300 6 5.4 8.0
2017-Mar-25 21:50 330 5 5.4 8.0
2017-Mar-25 21:20 300 7 5.4 8.0
2017-Mar-25 20:50 300 9 5.4 8.0
2017-Mar-25 20:20 300 11 5.4 8.0
2017-Mar-25 19:50 320 13 5.4 8.0
2017-Mar-25 19:20 310 12 5.4 8.0
2017-Mar-25 18:50 310 13 5.4 8.0
2017-Mar-25 18:20 320 13 5.4 9.0
2017-Mar-25 17:50 320 14 5.4 9.0
2017-Mar-25 17:20 320 12 5.4 9.0
2017-Mar-25 16:50 320 15 5.4 9.0
2017-Mar-25 16:20 310 24 5.4 9.0
2017-Mar-25 15:50 320 19 5.410.0
2017-Mar-25 14:50 300 18 5.4 9.0
2017-Mar-25 14:20 280 20 5.4 8.0
2017-Mar-25 13:50 280 20 5.4 8.0
2017-Mar-25 13:20 280 20 5.4 8.0
2017-Mar-25 12:50 290 18 5.4 8.0
2017-Mar-25 12:20 280 18 5.4 8.0
2017-Mar-25 11:50 270 18 5.4 8.0
2017-Mar-25 11:20 270 17 5.4 8.0
2017-Mar-25 10:20 280 19 5.4 8.0
2017-Mar-25 09:50 280 20 5.4 8.0
2017-Mar-25 09:20 280 21 5.4 8.0
2017-Mar-25 08:50 270 22 5.4 8.0
2017-Mar-25 08:20 270 20 5.4 8.0
2017-Mar-25 07:50 280 20 5.4 8.0
2017-Mar-25 07:20 280 19 5.4 8.0
2017-Mar-25 06:20 280 19 5.4 8.0
2017-Mar-25 05:50 270 17 5.4 8.0
2017-Mar-25 05:20 280 15 5.4 8.0
2017-Mar-25 04:50 290 20 5.4 8.0
2017-Mar-25 04:20 280 21 5.4 8.0
2017-Mar-25 03:50 280 21 5.4 8.0
2017-Mar-25 03:20 280 19 5.4 8.0
2017-Mar-25 02:50 270 19 5.4 8.0
2017-Mar-25 02:20 280 15 5.4 8.0